Погода в Кишкине

Россия / Тамбовская область     52°20′23″N   42°23′22″E
темп.,
°C
ветер,
м/с
пор.,
м/с
влажн.,
%
обл.,
%
осадки,
мм/ч
давл.,
гПа
погр.,
м
25 июня, сб
сб2500:00+15ссв411925 0.0 1012223
03:00+14ссв499455 0.0 1013168
06:00+16ссв378883 0.0 1014200
09:00+21ссв57694 0.0 1014600
12:00+24св67564 0.0 10151745
15:00+25св675412 0.0 10152082
18:00+23св58665 0.0 1015542
21:00+18ссв478033 0.0 1016101
26 июня, вс
вс2600:00+17ссв46844 0.0 101791
03:00+16ссв368690 0.0 101895
06:00+18ссв49840 0.0 1018257
09:00+22ссв57660 0.0 1019632
12:00+25св610550 0.0 10191791
15:00+25св69540 0.0 10192043
18:00+24св47670 0.0 1019674
21:00+18всв33830 0.0 102038
27 июня, пн
пн2700:00+15всв33820 0.0 102134
03:00+14всв22810 0.0 102215
06:00+16юв11730 0.0 102266
09:00+21юз11570 0.0 1022425
12:00+25зсз22500 0.0 1021918
15:00+27сз34540 0.0 10191236
18:00+27зюз34672 0.0 1018343
21:00+21зсз338714 1.1 101836
28 июня, вт
вт2800:00+20зсз34914 2.1 101762
03:00+18с48920 2.1 1016129
06:00+19с410890 0.0 1017282
09:00+23ссв68720 0.0 1018756
12:00+23ссв78590 0.0 10191321
15:00+23ссв67480 0.0 10191484
18:00+21св46610 0.0 1020904
21:00+15всв38780 0.0 1021141
29 июня, ср
ср2900:00+12св37780 0.0 1022120
03:00+10св35820 0.0 102376
06:00+12св35760 0.0 1023164
09:00+17св46540 0.0 1023937
12:00+19св45471 0.0 10231730
15:00+20ссв454515 0.0 10222087
18:00+19св45571 0.0 1022798
21:00+14всв22720 0.0 102316